GFSNIL_prec_cthk_000.txt.gz
RH
52 48 46 51 55 57 56 58 56 54 52 52 54 46 34 30 31 32 29 29 31 30
48 47 49 53 55 57 59 59 58 58 59 57 56 48 35 30 29 29 31 34 32 32
49 50 52 55 56 58 61 61 61 64 66 63 57 42 33 29 29 33 36 35 34 37
55 54 55 57 59 62 63 63 66 72 71 65 54 42 34 31 36 39 37 36 38 36
59 59 59 60 63 64 65 68 73 75 71 61 51 38 36 42 41 36 38 40 36 30
62 61 62 64 66 67 70 73 76 74 68 57 44 41 43 37 36 39 40 35 29 27
63 64 66 67 69 72 75 78 77 73 63 50 44 39 36 36 40 40 34 28 26 21
66 68 68 71 73 77 81 80 78 67 52 42 36 35 36 40 38 33 29 25 22 23
69 68 71 76 78 82 82 80 66 50 39 35 35 37 40 37 32 30 26 24 25 25
69 73 76 79 82 83 77 63 46 37 36 35 37 39 35 31 29 27 26 26 26 26
76 78 79 82 80 72 61 43 37 38 34 38 38 34 31 27 25 27 28 28 29 31
77 80 80 77 70 54 40 40 37 35 38 37 34 30 26 25 28 29 29 29 31 29
80 76 72 62 43 41 41 35 37 38 36 33 29 26 25 28 30 30 30 33 31 31
69 63 47 43 44 39 37 38 37 35 32 29 27 26 24 27 30 32 36 33 30 30

GFSNIL_prec_cthk_003.txt.gz
RH
63 56 58 53 46 47 50 55 59 62 63 62 61 60 56 47 34 31 30 30 31 31
62 59 58 53 50 50 53 58 61 64 64 63 63 63 60 46 37 33 32 33 36 39
60 56 54 55 55 53 55 60 64 67 65 64 65 65 57 44 38 35 38 41 41 36
55 51 55 59 59 58 60 64 68 69 68 67 68 65 53 48 42 44 44 37 33 36
54 54 58 61 62 62 64 69 70 72 71 70 72 63 59 49 45 39 31 35 37 32
60 59 60 64 65 65 71 72 73 74 74 77 73 65 49 41 34 31 37 36 31 26
65 64 63 64 66 71 74 75 75 79 82 79 68 50 38 32 33 38 36 30 27 26
67 65 63 67 72 73 74 78 82 84 80 66 49 36 32 35 39 34 29 28 26 26
66 63 66 71 71 74 80 83 84 78 66 46 35 33 37 39 33 29 28 26 26 26
64 68 69 73 78 81 83 84 75 61 41 34 34 39 38 31 28 27 26 26 26 28
68 72 77 80 81 84 81 71 53 37 35 36 40 36 30 28 26 26 25 26 26 29
77 80 80 81 82 74 62 43 39 35 39 39 33 30 28 26 26 25 25 24 26 27
80 81 81 75 67 50 42 39 37 40 37 31 29 27 27 25 27 27 25 27 28 28
80 77 69 52 43 43 39 40 39 35 31 29 28 27 24 21 27 28 31 31 30 29

GFSNIL_prec_cthk_006.txt.gz
RH
66 73 71 66 62 59 53 53 55 57 59 61 63 63 62 59 56 47 39 34 32 33
70 81 70 65 62 57 55 57 58 60 62 64 65 66 64 61 56 46 41 37 38 39
78 75 68 64 61 58 58 58 60 62 64 67 69 68 65 61 54 48 43 42 38 35
75 70 66 64 60 60 61 63 65 67 68 71 71 70 66 61 56 51 44 36 32 32
82 71 67 63 62 62 66 67 69 70 73 75 74 71 67 64 56 44 34 32 34 32
70 67 62 62 65 67 69 71 71 75 78 76 74 73 68 59 44 32 34 35 32 31
64 62 63 66 68 70 71 72 77 82 78 76 79 69 60 43 32 34 35 33 32 29
65 67 68 70 71 72 74 79 84 78 82 83 70 60 39 32 35 36 35 32 31 31
74 72 71 70 72 75 79 84 81 86 83 69 58 34 33 36 36 35 33 32 31 30
73 69 70 72 76 79 82 87 88 80 67 52 33 35 37 35 30 31 31 31 29 28
68 68 72 76 78 86 89 88 75 63 43 34 37 37 33 28 28 31 31 29 28 29
71 74 77 85 88 89 83 70 57 36 38 39 36 31 28 28 29 30 28 26 27 32
77 85 87 88 85 76 66 43 37 40 38 35 30 29 29 26 28 27 25 30 32 31
86 86 85 79 70 48 38 41 40 38 34 30 31 29 24 21 24 25 32 32 30 31

GFSNIL_prec_cthk_009.txt.gz
RH
52 55 62 70 74 75 69 67 62 55 58 58 59 61 62 63 64 62 55 48 45 41
55 59 68 69 72 72 68 67 60 58 60 60 62 64 65 66 67 65 56 49 46 42
63 70 70 71 71 69 71 67 58 60 62 63 67 70 70 71 71 65 54 51 46 37
72 74 73 77 70 71 70 63 61 64 66 69 71 74 74 75 71 60 55 53 39 33
79 75 77 76 71 71 67 63 65 66 69 75 76 75 78 76 67 61 58 40 34 35
77 77 80 74 70 70 64 66 68 71 75 73 75 83 82 73 65 60 41 35 35 33
83 82 80 73 72 67 66 69 72 76 76 77 84 84 77 67 60 40 36 35 36 34
85 82 78 75 68 67 72 74 76 78 80 84 85 81 67 57 38 36 37 36 33 33
87 81 74 68 72 75 76 75 78 79 82 88 81 67 54 38 35 34 33 33 32 31
78 70 70 76 81 76 76 77 79 83 89 78 64 50 37 35 33 31 32 32 31 28
75 75 86 79 75 75 76 79 88 87 72 62 44 37 35 33 31 30 32 30 27 26
87 77 72 73 76 77 86 91 82 67 56 40 37 35 33 31 30 30 28 25 25 28
68 71 75 77 85 91 87 73 62 45 39 36 34 33 32 30 27 25 24 23 25 30
74 79 85 90 88 77 66 49 42 38 35 36 35 33 30 24 21 25 24 24 25 28

GFSNIL_prec_cthk_012.txt.gz
RH
44 47 52 59 64 68 72 72 68 76 72 61 58 61 61 62 63 64 64 64 60 55
49 49 57 64 67 73 74 72 78 72 70 59 60 61 61 64 67 69 69 66 60 54
51 55 65 68 72 77 81 75 70 71 66 59 60 62 66 70 73 75 71 64 59 50
59 70 72 74 78 81 75 76 70 72 64 61 64 68 72 75 76 73 70 64 53 52
72 76 74 74 80 79 80 72 73 71 65 67 72 73 77 79 74 75 70 57 55 43
78 77 77 81 84 79 78 73 74 70 69 72 74 77 80 81 77 72 60 57 45 36
78 80 80 85 78 84 78 72 72 70 74 75 78 82 85 80 74 65 59 44 35 32
81 86 85 83 87 87 76 74 71 73 77 80 82 84 81 76 67 61 42 32 32 34
82 79 85 90 85 83 77 71 72 80 83 82 83 82 79 67 59 38 30 32 33 32
88 95 92 87 85 78 71 78 86 84 80 80 85 78 66 53 34 31 33 33 33 28
96 92 87 84 74 78 86 86 79 80 85 87 73 62 42 32 32 34 32 29 25 25
87 81 84 88 87 84 75 79 84 90 79 67 51 36 32 34 34 31 25 24 23 23
88 85 85 80 77 80 85 91 82 69 57 38 34 33 37 35 30 23 20 19 20 20
84 77 76 79 84 89 83 69 56 40 36 34 37 39 34 29 24 24 25 24 21 22

GFSNIL_prec_cthk_015.txt.gz
RH
47 57 60 58 58 56 61 69 76 78 78 73 70 72 67 61 62 62 63 66 68 66
49 57 57 58 59 64 66 72 79 81 78 72 77 75 66 64 64 64 67 73 71 67
63 62 57 61 64 68 71 76 81 82 83 84 77 71 65 66 66 69 74 76 74 65
72 66 60 65 67 71 78 80 87 82 85 78 72 73 67 69 71 75 77 77 71 62
74 61 64 67 69 77 82 86 86 88 82 75 76 70 71 72 74 78 79 74 67 59
69 61 66 71 77 82 88 87 90 83 80 78 76 72 74 78 80 82 77 68 63 64
69 67 73 76 84 87 84 91 85 88 81 78 76 75 81 83 84 78 70 71 65 50
72 75 79 86 84 84 86 88 86 87 79 77 76 79 88 87 80 76 74 66 45 31
73 77 83 87 89 94 90 87 86 83 79 76 81 89 88 81 80 76 63 40 30 34
78 80 87 89 92 91 88 86 87 80 77 87 91 87 83 81 74 54 35 31 35 33
86 92 92 96 91 91 88 89 87 89 89 87 84 84 80 65 43 32 34 35 29 27
94 96 98 97 97 95 94 93 90 84 83 84 82 70 49 34 32 35 33 26 25 24
98 97 95 92 92 87 82 81 81 83 82 67 49 35 32 34 37 31 28 27 24 22
96 93 88 82 81 80 85 85 77 60 46 36 32 33 37 36 34 32 29 25 23 22

GFSNIL_prec_cthk_018.txt.gz
RH
45 48 52 57 56 56 61 67 71 73 78 81 81 80 76 75 71 78 63 62 63 64
41 48 49 53 61 64 69 73 76 76 81 84 84 80 79 69 72 80 65 65 66 68
37 47 53 66 66 69 74 74 73 79 82 85 85 82 78 77 83 76 66 67 69 71
38 44 63 77 74 71 72 73 75 80 81 83 84 89 87 87 79 69 68 71 73 75
40 55 61 78 80 79 72 75 76 79 84 85 91 92 86 81 69 73 72 75 76 77
50 65 73 80 87 78 70 73 79 85 87 92 90 89 80 76 74 74 78 79 79 81
60 70 83 88 88 76 71 77 85 89 92 89 92 84 85 77 77 79 81 86 84 78
70 79 93 89 83 74 79 83 88 90 94 89 86 82 81 82 83 81 88 85 80 72
79 89 95 81 71 77 82 89 91 92 95 92 92 90 85 81 83 90 87 78 67 57
87 96 85 77 82 83 89 91 90 97 94 84 87 88 89 88 88 80 74 66 51 32
94 83 83 85 84 86 95 93 97 97 94 95 93 92 88 79 75 68 55 37 31 34
89 85 86 88 93 97 98 98 98 97 97 95 87 82 77 66 51 37 31 33 37 36
87 89 92 94 98 95 93 97 97 91 83 83 78 59 45 35 31 33 37 37 31 27
98 98 98 98 97 90 86 85 84 80 64 48 37 33 32 36 39 39 33 29 27 26

GFSNIL_prec_cthk_021.txt.gz
RH
36 39 41 48 58 67 70 66 67 73 69 77 81 80 83 79 78 75 74 76 72 73
30 37 44 46 55 65 71 66 65 72 75 80 85 86 85 80 82 79 80 76 73 78
26 28 36 42 48 57 70 70 66 70 79 83 85 86 84 82 89 82 81 81 84 85
28 29 30 32 43 53 56 67 75 77 85 88 86 81 80 82 89 80 89 89 86 82
30 29 33 34 36 48 62 68 80 86 88 83 79 80 80 80 80 93 96 86 78 77
33 29 34 39 42 55 72 85 92 88 80 81 80 79 76 93 85 93 85 82 83 77
37 33 43 48 53 64 76 90 96 86 84 80 79 78 82 92 96 91 91 89 83 82
45 43 53 57 64 75 83 95 99 86 77 77 77 81 91 97 92 94 88 86 86 85
55 60 64 71 81 84 89 92 96 81 80 79 80 86 97 97 97 97 90 94 89 80
79 83 84 87 90 92 91 98 87 81 82 82 87 91 94 98 95 96 90 79 77 67
80 85 93 96 92 95 97 92 85 87 86 96 96 98 97 98 91 81 76 68 58 43
97 97 97 93 97 93 90 92 95 96 96 98 98 98 91 88 80 68 51 36 31 34
99 97 99 94 90 92 88 99 98 98 97 96 89 86 71 57 38 31 32 35 35 33
95 91 96 96 95 98 99 97 96 91 85 68 50 38 32 33 37 37 34 31 28 27

GFSNIL_prec_cthk_024.txt.gz
RH
24 23 27 38 48 54 58 60 72 79 84 84 81 81 83 86 84 82 91 80 80 76
31 30 32 38 46 46 54 59 70 77 86 85 84 83 80 83 88 88 82 90 87 83
35 35 34 33 33 40 48 58 63 75 80 87 87 85 84 85 90 88 87 85 92 91
41 37 37 34 33 33 37 49 65 70 85 89 90 85 86 87 87 88 89 81 86 85
45 46 41 35 32 33 38 39 49 68 75 80 86 86 85 84 86 90 87 83 97 84
54 50 48 41 33 32 40 46 47 54 66 75 78 84 84 85 89 89 86 86 89 95
61 61 55 47 45 43 44 48 54 57 62 77 79 81 84 84 89 86 87 84 86 97
65 66 60 55 54 53 54 56 60 64 67 82 91 94 86 90 91 87 88 87 95 95
61 60 59 58 55 53 53 56 62 69 74 88 90 97 96 96 88 89 87 90 97 98
68 62 62 63 65 68 67 75 77 80 83 86 95 93 96 93 90 89 93 98 97 88
70 65 72 82 82 79 82 87 93 88 91 93 90 95 96 97 92 97 97 88 78 69
73 82 90 91 93 93 96 98 95 93 92 92 98 94 97 96 96 88 74 60 50 42
89 92 97 98 99 99 95 98 97 98 98 96 98 98 93 78 59 46 42 39 32 27
98 98 98 98 97 97 98 98 97 97 96 85 67 50 42 38 35 31 25 21 18 16

GFSNIL_prec_cthk_027.txt.gz
RH
25 25 25 25 25 30 38 48 57 58 64 74 77 78 83 91 93 94 96 94 86 85
33 34 34 33 32 32 33 41 48 61 62 69 78 85 89 94 96 95 95 92 89 85
37 39 41 41 41 39 39 44 49 60 68 69 76 83 91 95 93 96 94 91 87 88
43 45 47 48 50 48 44 39 44 53 60 72 76 81 88 88 98 96 94 91 86 87
50 50 55 56 54 53 49 45 44 45 53 61 67 77 88 95 96 96 93 85 86 90
62 60 55 58 60 59 56 49 43 51 51 53 64 71 82 92 93 95 91 87 88 98
73 70 64 62 64 70 65 59 52 47 50 51 57 64 70 79 83 85 85 88 89 88
89 80 72 67 72 74 70 66 61 58 55 55 58 65 67 69 73 80 92 98 98 93
86 81 73 67 73 75 73 73 71 68 67 67 66 68 79 82 85 96 99 98 97 94
76 75 68 66 70 75 72 72 66 62 67 71 71 78 93 91 85 93 97 97 96 95
75 70 67 68 75 72 70 72 69 73 80 84 86 96 82 84 85 92 96 95 97 90
74 78 81 81 90 94 85 78 78 95 96 98 95 98 96 95 97 97 90 84 64 44
88 91 92 96 93 93 90 93 97 98 98 97 98 98 98 91 78 59 45 36 27 18
91 93 96 97 98 98 98 98 98 98 97 94 80 64 51 43 34 26 16 14 12 12

GFSNIL_prec_cthk_030.txt.gz
RH
26 26 28 28 29 32 36 31 32 37 45 53 58 65 72 77 82 88 91 95 95 95
28 29 36 38 36 34 35 37 41 38 42 50 58 68 72 76 84 89 92 92 92 94
29 30 31 32 34 37 39 42 46 50 48 51 59 63 71 79 85 91 96 97 95 98
34 34 36 39 42 44 47 48 49 49 51 60 60 69 70 73 82 87 94 95 95 98
41 44 46 48 51 58 57 58 55 55 54 56 61 67 75 76 80 86 89 90 93 91
44 43 49 56 66 69 70 70 67 65 61 61 60 60 64 73 79 81 87 87 94 94
47 51 56 65 76 79 75 75 71 71 66 63 61 66 65 67 70 77 80 87 87 94
52 59 66 75 86 82 75 71 69 74 76 70 68 69 71 69 73 75 76 77 76 82
57 60 63 67 66 69 71 79 83 84 78 75 72 70 70 69 69 75 73 72 77 87
60 61 61 63 66 64 69 80 82 83 83 80 77 78 78 76 73 72 90 98 84 86
64 64 65 69 69 69 66 70 76 74 75 75 75 76 80 78 81 89 94 94 91 88
70 72 72 74 80 83 84 78 76 77 78 87 85 93 92 92 90 96 97 92 82 69
75 81 83 86 91 90 86 86 86 84 95 96 97 98 98 97 88 78 65 50 35 24
70 76 80 83 86 89 90 91 94 96 97 95 87 77 62 49 37 29 25 21 14 12

GFSNIL_prec_cthk_033.txt.gz
RH
26 28 27 29 32 36 35 36 38 39 41 43 48 52 58 62 63 66 70 82 88 89
30 30 30 33 35 38 37 37 40 41 41 42 44 51 60 62 62 65 72 80 86 92
32 32 30 29 33 38 39 39 35 43 49 53 50 54 59 62 68 71 71 76 85 91
30 32 34 36 38 41 46 44 44 50 54 61 64 63 65 66 71 78 78 83 87 95
39 43 43 46 43 41 42 48 54 62 67 71 73 70 63 63 73 78 84 89 91 93
49 46 45 43 43 44 48 53 62 73 76 80 78 78 74 69 70 75 86 93 97 97
50 47 43 46 45 48 50 58 68 77 81 82 80 80 75 73 71 73 76 84 95 97
47 45 48 50 50 52 50 54 58 66 73 78 79 82 80 78 72 73 80 82 86 90
49 47 50 52 51 51 51 51 60 69 78 83 85 87 85 81 79 78 86 88 86 90
53 54 54 56 57 56 55 56 61 69 75 80 82 84 85 83 83 82 85 90 88 81
58 59 61 60 61 63 64 64 64 66 67 73 80 82 79 77 78 80 83 78 80 85
61 63 66 68 70 72 76 76 79 77 79 82 86 90 88 82 85 96 81 86 94 89
58 61 63 66 69 74 76 77 80 83 84 85 93 92 92 96 97 91 84 67 61 47
54 55 56 58 62 66 71 77 82 84 77 69 62 55 48 39 33 30 23 17 15 13

GFSNIL_prec_cthk_036.txt.gz
RH
23 24 25 27 28 28 35 40 42 46 41 38 41 46 53 57 61 74 72 75 73 72
31 31 29 27 29 32 34 34 35 36 38 39 41 46 49 53 60 63 67 70 81 80
27 27 28 29 29 30 36 38 38 35 35 39 45 50 57 64 71 78 79 81 81 84
30 31 33 33 36 38 39 40 39 38 37 38 40 47 59 68 70 78 88 94 93 86
35 37 38 42 42 42 41 40 38 37 38 39 45 55 69 77 77 81 80 84 87 92
41 42 44 44 43 40 41 39 39 39 41 42 48 57 69 79 84 82 85 83 82 85
47 48 48 45 43 45 43 42 44 41 43 46 51 60 68 71 84 84 84 87 84 83
50 47 45 45 46 47 47 48 46 44 47 51 56 61 66 73 78 80 86 85 84 83
49 47 47 46 47 46 49 49 48 47 48 50 55 60 66 74 78 83 82 84 82 87
52 51 49 50 50 53 55 56 54 56 55 55 59 62 68 72 78 83 84 82 84 94
52 52 51 52 56 58 60 62 62 64 64 68 70 73 77 83 82 82 81 85 95 89
53 53 52 54 57 59 61 63 66 68 69 71 74 78 79 81 85 84 86 96 86 79
49 49 50 51 53 54 57 58 63 65 65 60 59 60 60 56 57 49 46 48 46 41
46 48 49 49 50 49 45 39 31 26 24 20 16 14 12 11 10 10 10 10 10 9

GFSNIL_prec_cthk_039.txt.gz
RH
25 25 26 25 25 27 26 27 33 35 37 39 38 38 39 47 46 47 50 58 65 71
28 30 30 29 29 28 30 31 31 30 32 37 38 35 37 38 44 47 49 54 62 70
27 26 26 25 25 27 29 34 38 39 38 36 33 33 36 37 39 44 50 57 67 80
31 30 29 29 30 32 35 37 38 38 36 33 34 34 34 37 39 43 47 58 72 75
34 34 35 37 37 40 42 41 40 39 37 37 34 33 37 41 46 49 55 62 72 75
40 40 40 40 42 45 43 39 39 39 39 38 36 38 40 44 49 52 60 65 75 77
45 46 46 46 45 42 42 43 43 43 41 38 40 43 44 46 51 56 60 65 69 75
47 46 44 44 44 45 47 47 46 44 43 41 43 44 46 48 52 58 62 69 74 77
47 46 46 45 45 46 45 46 46 45 45 48 48 49 51 55 59 61 63 69 72 75
48 49 47 47 47 46 46 47 48 48 52 55 59 60 62 64 66 67 67 69 72 82
48 48 48 48 49 53 55 53 53 54 55 55 58 60 62 64 68 72 74 77 80 83
50 47 47 48 52 52 51 52 52 50 50 43 38 40 37 35 35 35 40 49 51 53
46 47 47 47 47 48 48 43 36 31 25 19 15 13 12 11 11 11 11 11 11 11
43 45 45 44 40 33 26 24 23 20 16 14 13 12 12 12 12 12 12 12 12 13

GFSNIL_prec_cthk_042.txt.gz
RH
23 22 22 22 22 23 25 26 26 27 31 36 34 34 34 37 39 36 41 43 44 45
24 24 24 26 27 28 28 29 30 29 29 32 37 40 39 35 34 36 37 37 42 44
26 26 26 27 27 26 26 26 29 32 35 38 36 34 32 32 31 31 32 35 38 41
31 31 31 31 30 30 30 31 33 36 39 38 36 35 34 33 32 34 35 37 39 43
33 34 34 35 36 36 36 37 39 41 40 38 36 36 36 35 37 38 40 41 44 48
36 38 38 39 39 40 41 41 44 42 39 38 38 38 36 37 39 41 42 44 47 50
43 43 43 43 44 45 46 44 41 42 42 40 39 38 38 40 42 44 46 46 49 52
44 44 43 42 42 42 42 43 44 43 42 41 39 38 40 42 44 47 48 48 48 53
46 44 45 45 44 43 43 43 43 43 41 41 42 44 46 50 51 53 54 56 55 58
47 47 47 45 45 45 44 43 43 45 47 48 50 52 54 53 52 51 57 61 65 66
45 46 46 47 47 47 47 47 47 48 44 39 39 39 38 35 32 31 31 35 39 42
45 45 46 48 48 47 46 46 47 41 32 25 20 16 14 13 11 12 12 13 13 13
44 47 48 47 47 45 42 32 26 24 18 14 13 12 12 11 12 12 12 13 14 14
44 44 46 45 41 31 27 26 23 21 19 17 16 16 16 16 16 17 17 18 18 19

GFSNIL_prec_cthk_045.txt.gz
RH
21 22 23 24 24 24 24 24 24 26 27 29 33 41 39 38 37 38 40 36 38 38
27 26 25 25 25 26 25 26 27 30 33 31 30 31 35 40 42 38 34 35 36 37
29 29 28 27 27 27 27 28 28 28 31 30 32 35 35 34 33 33 33 33 32 34
33 32 30 30 30 30 31 32 33 33 33 35 36 37 36 35 34 34 34 33 34 35
34 32 33 33 32 35 37 37 37 37 38 38 39 39 36 35 36 36 34 34 36 38
36 36 35 36 36 38 39 40 41 43 43 43 40 37 37 37 36 35 35 35 39 42
41 42 42 42 42 42 43 44 45 44 41 39 39 39 38 37 35 36 36 38 41 44
45 46 44 44 43 42 41 42 42 42 42 40 39 38 37 37 39 40 42 43 46 48
47 46 45 44 42 43 43 42 42 40 40 40 42 42 44 45 46 47 47 50 53 54
46 45 46 44 42 42 44 43 43 43 44 43 41 41 42 42 36 31 30 30 33 37
45 45 45 45 43 43 44 44 46 45 42 34 28 23 20 17 15 15 16 19 22 23
46 46 45 45 45 45 44 46 46 39 27 18 15 14 12 11 11 11 12 13 13 14
45 46 46 45 44 41 40 31 27 26 23 19 15 14 14 14 14 15 16 16 17 18
45 45 45 45 43 29 26 27 27 26 24 22 20 20 19 19 19 20 20 21 23 24

GFSNIL_prec_cthk_048.txt.gz
RH
26 24 23 23 23 22 22 24 25 25 26 27 29 30 34 40 51 49 41 42 45 40
27 26 25 25 26 28 27 27 27 27 27 30 31 32 34 35 36 38 41 43 38 37
31 30 30 29 29 29 30 30 30 29 29 32 33 32 32 33 35 35 36 37 36 35
36 36 34 32 32 33 34 33 33 33 34 36 36 37 37 38 38 38 38 37 36 35
39 40 39 37 36 35 33 34 34 38 40 39 41 41 42 42 39 38 38 37 35 35
42 43 42 40 37 35 35 37 39 41 43 43 44 43 40 39 39 39 39 37 36 36
42 41 42 43 41 41 42 43 44 44 43 42 39 39 40 39 39 38 37 38 38 39
44 45 46 47 47 44 42 43 42 41 42 41 38 38 38 38 38 39 41 44 45 46
48 48 49 49 47 47 45 45 42 40 39 38 41 43 43 43 44 44 38 31 30 34
51 50 47 47 46 46 46 44 41 40 41 40 40 36 33 31 27 24 22 21 23 23
49 51 48 46 46 43 46 44 44 42 39 31 23 16 14 13 12 11 11 11 12 14
48 47 46 45 45 46 48 47 45 38 24 19 17 17 15 14 13 13 14 15 16 17
47 47 46 46 47 46 46 40 28 23 21 21 21 20 19 19 19 19 19 20 21 21
46 46 47 47 46 42 29 27 26 24 23 23 24 25 26 25 25 24 24 25 26 27

GFSNIL_prec_cthk_051.txt.gz
RH
32 29 28 27 26 25 23 22 22 23 24 25 27 29 31 31 35 35 40 45 48 42
36 32 29 28 27 25 24 25 26 27 27 27 30 32 32 31 33 35 38 41 41 42
39 37 33 31 29 28 28 29 30 31 30 32 33 33 33 33 35 35 37 38 37 37
42 40 39 35 34 34 35 34 34 34 35 37 35 36 38 38 38 38 39 40 38 37
42 42 42 41 40 39 39 38 38 38 38 36 38 41 42 43 43 42 39 38 38 38
44 44 44 44 43 43 42 42 40 37 37 40 44 44 44 41 40 40 38 38 37 37
43 44 46 49 48 48 45 42 41 41 44 45 45 42 40 39 39 39 38 38 40 40
44 46 48 49 49 46 43 43 44 44 42 42 41 39 38 37 38 39 41 43 38 33
50 50 51 51 50 49 48 46 46 45 42 38 39 39 39 41 42 40 35 30 26 25
57 56 53 51 50 50 50 48 45 43 41 41 39 32 28 26 23 21 19 17 17 17
59 58 60 58 53 51 51 49 46 42 42 34 22 15 14 14 14 14 13 13 14 15
59 61 62 60 56 52 50 49 47 43 31 20 16 16 16 15 16 17 19 19 20 20
58 56 55 54 53 53 51 48 41 30 23 19 20 21 20 21 23 24 26 26 26 26
60 56 56 57 55 50 44 31 28 26 25 24 25 26 27 28 29 31 32 33 33 33

GFSNIL_prec_cthk_054.txt.gz
RH
46 42 39 36 34 31 28 27 26 26 25 24 23 24 27 29 29 29 35 41 41 43
46 43 40 38 36 34 30 29 28 27 25 25 26 29 33 33 33 35 38 39 44 48
43 42 41 40 39 38 35 31 30 28 28 30 32 33 34 35 35 34 35 38 42 41
45 44 43 42 42 41 40 37 33 33 35 36 36 37 38 37 35 35 37 37 39 39
46 44 42 41 41 42 42 42 41 40 39 38 39 39 38 36 39 40 40 40 37 37
46 43 42 42 42 44 45 46 46 45 44 42 42 41 39 41 43 42 37 37 35 35
47 45 43 43 44 45 47 47 48 50 49 47 45 44 43 41 40 38 36 34 33 35
48 48 48 48 47 49 50 49 50 51 51 48 47 43 41 38 37 36 35 35 37 30
53 54 54 53 52 53 54 53 51 50 49 47 44 40 41 40 38 40 39 31 24 22
56 57 58 57 58 58 58 55 53 52 49 46 46 44 37 33 29 24 20 18 18 17
60 61 60 61 61 62 61 60 54 54 50 47 41 25 17 15 13 13 13 14 15 17
65 64 62 64 63 66 66 65 62 56 49 36 24 19 16 15 16 16 18 20 22 23
70 69 66 66 68 68 66 65 64 57 38 26 20 19 20 22 22 23 25 27 28 30
71 69 66 64 63 63 61 58 50 37 30 25 24 25 26 27 28 29 32 34 35 35

GFSNIL_prec_cthk_057.txt.gz
RH
61 56 53 51 48 45 42 39 37 34 31 28 27 27 26 28 28 29 32 34 36 39
59 57 54 51 50 47 44 40 38 35 33 30 29 29 29 31 34 36 38 39 41 44
60 59 57 53 48 46 44 42 40 39 38 36 32 32 32 35 39 39 40 42 42 42
62 59 54 48 44 43 42 42 42 42 42 41 39 36 38 41 41 41 39 39 39 38
58 54 50 48 46 44 43 42 41 44 46 46 45 43 44 42 43 43 42 41 41 42
56 52 51 50 46 43 44 44 44 45 46 49 50 49 48 47 46 45 46 44 43 39
52 53 52 49 47 46 47 46 47 46 47 48 50 50 51 50 49 48 44 40 39 36
49 49 48 46 48 49 49 49 48 48 48 49 51 52 52 50 48 44 41 39 36 36
48 47 48 49 49 53 54 55 55 52 53 54 54 53 51 46 42 44 43 40 40 32
53 52 54 56 55 57 58 61 60 59 57 57 54 49 47 48 48 42 37 28 21 17
59 59 60 60 60 62 60 64 65 62 62 57 52 50 48 36 24 18 17 16 15 15
64 64 64 64 63 64 63 66 67 66 62 60 55 34 24 18 19 18 17 18 19 21
69 67 67 67 67 68 67 68 69 71 67 56 41 32 28 25 20 22 23 25 26 27
69 71 70 70 69 70 68 68 70 66 59 46 39 32 27 26 28 28 30 31 33 33

GFSNIL_prec_cthk_060.txt.gz
RH
71 69 67 65 64 61 59 56 52 48 45 42 40 38 36 32 29 31 34 32 33 36
69 70 72 70 68 63 59 55 51 48 47 45 43 41 38 37 34 35 35 35 38 43
70 69 67 67 67 63 59 55 53 50 46 45 44 43 42 42 41 41 38 40 44 46
78 74 73 72 67 65 62 56 49 44 43 43 45 46 47 47 47 47 45 45 45 46
73 74 79 80 74 62 56 52 47 45 44 45 44 46 48 49 51 51 50 49 49 46
68 69 69 65 59 57 57 54 50 47 47 46 46 47 48 50 52 53 52 51 50 51
50 54 56 56 59 58 57 53 51 50 48 48 48 47 49 51 52 53 53 51 51 50
44 45 46 46 46 46 50 51 51 50 49 51 52 51 52 53 54 54 55 53 48 45
49 51 53 50 47 47 49 50 50 49 53 55 57 58 57 55 57 56 53 46 44 46
55 57 56 52 52 53 53 54 55 56 58 60 61 62 58 59 53 52 53 54 51 41
60 61 61 59 60 59 58 58 61 61 63 65 66 63 60 57 57 53 45 33 22 17
65 66 64 64 64 63 62 62 64 66 67 67 67 63 59 46 37 31 22 20 19 24
68 67 67 66 68 67 67 68 68 70 70 70 66 55 43 37 32 27 24 28 29 27
70 68 68 65 69 71 70 70 71 72 70 69 61 49 44 45 43 38 36 33 33 34

GFSNIL_prec_cthk_063.txt.gz
RH
71 74 75 73 75 74 77 74 67 66 64 61 56 51 47 44 43 41 40 40 41 38
69 71 77 76 76 72 73 70 69 68 67 61 56 52 49 48 46 44 45 46 44 42
75 73 72 73 71 71 70 69 68 70 66 61 56 53 49 45 44 43 45 47 47 47
76 74 73 72 74 73 76 76 74 70 64 62 56 49 46 45 45 45 47 49 50 50
69 67 68 73 76 75 74 72 71 73 73 60 54 50 49 48 47 49 50 50 50 51
63 61 62 66 69 72 70 68 68 65 63 62 57 56 56 55 54 52 51 51 51 50
46 49 50 50 51 50 57 59 55 56 53 56 58 54 53 53 56 54 54 52 52 52
42 44 46 45 45 44 45 45 45 47 48 52 53 55 56 55 57 59 58 57 57 56
46 47 47 48 48 50 49 49 49 49 49 51 53 55 56 57 59 63 64 62 61 59
51 52 52 55 56 54 52 53 54 56 56 55 56 57 60 63 65 67 66 64 59 54
59 59 63 61 61 59 59 62 62 62 61 62 63 64 64 66 69 68 65 63 65 60
65 64 66 66 65 64 65 65 65 66 68 68 68 67 67 68 68 62 50 41 35 28
69 68 70 71 68 68 70 70 69 70 71 72 73 69 62 56 45 40 39 36 33 30
74 74 73 71 71 70 71 70 73 75 73 75 74 66 56 48 45 43 37 34 33 37

GFSNIL_prec_cthk_066.txt.gz
RH
83 87 83 83 83 84 81 77 74 72 74 75 74 72 66 64 59 53 49 48 47 47
75 83 81 79 78 79 78 76 74 75 73 72 70 69 68 66 61 55 53 50 49 49
68 72 75 75 74 77 80 82 78 76 74 74 74 74 70 64 60 55 54 51 51 51
69 73 79 83 81 78 71 70 71 74 75 73 73 73 70 67 62 57 54 54 52 52
71 73 78 76 74 71 72 72 75 73 73 69 67 65 64 67 61 57 59 57 56 56
63 71 74 72 72 75 74 70 67 65 65 67 61 58 58 62 62 61 63 63 62 61
45 52 57 59 61 61 59 56 53 50 49 48 52 52 54 54 55 60 60 61 63 62
40 41 44 45 46 48 48 47 47 45 44 44 43 42 43 51 51 54 58 62 66 64
43 44 45 46 48 48 48 48 48 47 46 46 47 47 47 46 48 53 57 60 61 64
49 50 50 50 51 52 53 52 50 49 50 51 52 51 53 54 55 57 60 62 66 70
56 55 55 54 57 61 61 60 59 58 59 58 57 58 61 61 63 64 66 68 68 68
65 63 63 65 64 65 65 63 63 64 64 63 64 66 66 66 66 66 67 69 68 63
73 73 73 73 70 69 69 67 68 67 65 64 68 71 69 67 68 64 53 43 40 38
73 78 80 79 75 74 71 70 68 67 67 67 73 75 72 62 57 48 43 40 38 43

GFSNIL_prec_cthk_069.txt.gz
RH
80 85 85 88 93 90 98 94 91 88 87 83 71 71 72 71 70 67 68 68 65 62
69 68 76 85 92 90 91 89 88 84 76 77 79 77 74 73 73 71 70 68 64 59
63 61 65 72 82 85 86 81 78 78 78 77 74 71 70 70 72 70 69 69 66 60
63 66 67 69 71 72 80 83 82 80 72 72 71 71 70 68 65 60 58 61 64 66
62 67 66 69 73 76 83 82 77 73 72 72 70 68 66 62 57 55 58 59 64 64
47 58 62 65 68 73 77 77 76 77 77 69 65 58 53 49 49 53 53 58 63 63
40 42 51 55 59 62 65 67 66 64 62 58 52 47 44 44 43 43 49 53 54 61
36 38 40 41 43 44 47 48 48 49 46 45 44 44 43 44 43 44 44 45 49 56
40 42 43 44 45 46 46 46 47 47 47 47 47 47 47 47 47 46 49 53 54 57
43 45 47 48 49 49 49 48 49 50 50 49 50 50 51 52 51 53 56 57 58 62
46 48 51 52 52 52 53 54 54 55 55 56 58 58 58 56 59 61 63 65 67 69
50 54 58 59 60 60 60 59 61 63 62 62 62 63 62 62 65 67 69 69 68 69
54 58 64 67 70 71 70 72 70 69 66 65 65 64 63 63 67 67 70 70 56 47
56 61 65 69 74 78 79 78 76 74 70 68 66 65 66 67 63 63 57 47 41 42

GFSNIL_prec_cthk_072.txt.gz
RH
69 74 73 75 85 88 89 92 95 98 97 95 92 92 83 77 74 73 71 70 69 69
61 63 62 63 68 76 84 92 92 93 90 91 89 79 77 74 73 71 70 69 69 68
68 65 65 66 61 63 75 92 91 90 87 82 77 75 71 71 70 70 69 66 63 60
59 59 60 60 61 68 73 79 75 72 74 78 76 75 67 70 69 67 67 63 57 56
46 49 51 56 63 69 70 71 73 77 79 79 75 72 75 73 69 63 57 52 50 50
35 37 42 49 55 60 63 66 71 73 73 73 72 73 67 66 59 53 45 43 43 45
34 35 36 38 45 49 50 50 52 54 58 63 65 59 55 51 43 40 39 39 40 41
36 36 35 36 37 40 45 49 51 51 50 48 48 47 44 42 42 42 42 43 43 44
35 37 38 39 40 40 41 43 45 47 48 49 48 47 45 46 45 45 46 46 47 51
37 40 41 43 45 46 48 49 49 50 51 50 50 50 49 51 51 51 51 52 56 58
38 41 45 47 49 50 52 53 53 54 53 53 55 55 56 56 57 57 57 60 61 62
41 42 46 50 51 54 57 58 57 57 57 58 60 60 63 62 61 61 61 59 61 62
45 46 48 53 56 58 60 64 64 66 66 67 67 68 68 64 63 63 62 61 61 66
49 51 54 60 62 63 63 67 69 71 74 76 75 73 70 68 67 66 62 60 52 47

GFSNIL_prec_cthk_075.txt.gz
RH
58 59 62 69 73 76 79 82 87 90 95 98 95 97 97 94 92 85 78 75 78 76
56 57 58 56 56 62 69 74 78 84 93 92 89 91 92 90 82 79 77 76 74 71
63 62 63 64 62 59 61 65 68 77 84 86 83 85 85 77 73 71 72 72 71 68
55 57 57 57 59 61 61 64 69 73 74 73 74 77 75 76 75 73 73 73 69 64
35 36 38 43 45 50 58 65 68 72 73 73 71 72 79 77 70 68 70 68 60 53
32 34 34 36 37 40 48 55 60 58 59 64 70 70 69 68 64 64 59 55 48 42
31 33 33 33 34 37 39 43 48 48 50 53 54 51 50 51 52 47 44 39 38 38
31 30 31 31 34 36 36 38 41 43 45 45 48 50 51 47 44 43 39 38 38 40
33 32 32 35 35 36 37 37 38 40 42 44 46 46 47 46 43 41 41 42 43 45
37 37 37 37 40 41 42 43 44 45 47 48 48 47 46 46 44 46 47 47 48 49
37 37 37 39 43 47 49 50 52 52 51 51 51 51 50 49 49 50 51 52 53 54
48 46 46 45 45 50 50 52 54 55 56 58 56 53 51 53 55 56 56 59 59 57
57 54 52 51 50 54 58 58 59 60 60 60 58 58 58 60 61 63 63 65 63 60
58 57 56 55 54 56 62 63 63 64 65 66 66 67 67 68 69 70 71 68 68 66

GFSNIL_prec_cthk_078.txt.gz
RH
73 71 72 72 71 71 78 81 82 84 85 88 91 92 95 97 95 97 95 93 92 84
62 63 64 62 61 62 60 61 69 78 80 78 83 92 92 90 87 88 88 86 80 77
63 62 63 62 62 63 62 63 63 63 67 64 71 83 85 88 85 80 78 74 75 75
53 55 57 60 59 59 58 60 60 64 67 68 68 67 69 71 70 65 68 67 73 76
39 37 36 35 36 38 41 44 52 58 67 68 70 70 72 72 68 69 70 70 70 68
33 33 34 33 33 33 34 38 45 54 59 65 65 62 60 60 61 60 60 58 51 51
30 31 31 32 31 31 32 36 40 48 55 57 53 51 51 51 49 50 47 46 45 41
32 32 32 32 33 34 34 34 37 41 46 48 47 46 46 47 48 47 49 45 41 38
36 35 35 36 37 38 39 37 38 40 44 47 48 48 48 48 49 50 45 43 42 39
44 42 40 39 40 41 42 41 44 45 43 46 49 50 49 48 48 48 46 42 40 39
47 48 47 47 45 45 46 47 48 49 48 49 54 55 54 54 52 48 46 45 45 46
48 48 49 50 52 52 49 50 52 53 53 56 58 63 61 59 57 55 54 53 51 48
43 47 52 52 51 52 59 59 61 61 61 62 62 65 69 67 65 61 59 58 57 56
36 44 51 56 56 57 59 59 64 68 70 68 68 70 73 70 69 66 63 64 65 68

GFSNIL_prec_cthk_081.txt.gz
RH
78 80 84 85 83 79 81 82 82 81 83 88 87 82 87 90 94 94 93 94 94 92
69 72 70 72 75 77 71 73 76 80 76 83 85 81 78 84 90 92 92 95 94 92
64 65 66 66 67 64 63 63 62 66 67 72 76 78 76 76 83 78 84 82 80 78
54 56 57 59 60 60 57 57 59 56 59 63 66 71 71 76 72 72 72 70 65 62
44 43 44 41 39 37 35 35 38 42 48 52 62 66 72 68 65 69 67 64 67 69
37 36 36 35 35 34 34 34 34 36 41 48 54 70 70 66 68 69 63 60 62 60
32 30 29 29 30 31 32 33 33 34 39 46 52 61 71 76 70 61 60 58 53 52
34 33 33 33 34 32 33 34 36 37 38 43 50 55 60 60 57 56 54 53 52 52
41 39 39 38 36 36 37 38 39 40 41 42 44 49 55 55 53 53 52 50 52 51
41 42 44 44 45 43 41 42 43 45 46 45 45 48 48 50 53 53 53 53 50 53
36 39 42 43 43 44 46 48 48 49 51 52 53 53 54 54 51 51 53 51 49 48
21 23 26 32 39 43 44 47 51 52 55 58 59 56 56 57 58 56 57 56 56 55
20 21 24 26 30 36 42 44 47 51 54 60 64 65 68 67 67 68 68 64 63 63
22 20 21 24 27 29 35 44 49 48 54 57 62 72 73 72 71 73 75 72 72 70

GFSNIL_prec_cthk_084.txt.gz
RH
89 88 87 88 88 88 84 86 83 80 78 78 83 83 83 93 97 98 90 94 92 92
80 80 80 83 84 84 84 84 82 82 83 83 83 87 89 91 93 93 93 90 92 89
71 72 71 72 74 77 75 77 77 77 75 73 71 78 84 85 83 83 89 98 86 84
64 66 65 65 65 65 65 64 63 64 59 64 64 67 71 75 78 76 86 85 77 79
46 45 44 44 44 44 41 41 40 39 41 41 49 54 55 63 78 81 81 71 71 71
36 36 34 33 33 33 31 35 35 34 35 38 40 41 47 59 66 82 73 68 66 63
35 35 32 30 29 28 28 29 31 31 33 36 40 45 48 54 68 74 73 74 75 66
39 39 38 37 37 35 34 33 34 34 34 35 38 45 52 57 63 72 77 82 72 64
39 39 38 39 40 40 40 40 39 40 43 43 41 44 51 55 57 68 72 67 65 64
28 28 30 31 34 36 36 36 39 41 43 46 48 49 49 52 56 55 60 64 61 61
17 16 17 17 19 22 29 35 38 38 42 46 49 54 58 58 55 54 58 61 63 62
16 16 16 16 16 18 20 24 29 35 38 41 44 49 56 61 65 64 59 60 62 61
21 21 20 19 19 19 18 21 23 30 38 44 46 48 52 60 66 67 71 70 65 66
30 30 29 27 26 25 24 22 20 23 27 34 45 51 54 59 61 71 75 77 78 75

GFSNIL_prec_cthk_087.txt.gz
RH
95 96 94 93 92 90 89 88 86 84 84 85 86 90 90 93 92 87 94 94 92 92
94 95 93 92 92 95 95 92 92 89 91 92 91 90 90 91 90 92 94 95 95 97
78 81 86 90 93 93 91 88 90 91 93 94 93 91 92 87 85 94 92 91 94 97
71 73 72 72 74 73 73 73 75 71 72 74 75 76 75 79 82 87 86 85 86 95
51 52 51 50 49 50 50 50 51 52 52 52 53 58 63 65 67 73 78 81 85 93
42 41 38 35 34 36 38 38 39 39 40 41 41 41 43 47 54 61 62 78 82 90
39 36 35 34 34 33 32 30 30 31 32 32 33 38 41 47 48 53 61 69 78 79
36 35 36 37 39 38 39 38 38 38 38 37 37 37 40 44 51 56 57 68 74 83
24 24 25 28 29 31 32 33 35 36 37 40 40 42 45 47 51 52 65 63 79 75
16 15 15 15 16 17 20 24 28 32 33 35 38 41 45 46 49 54 56 59 60 74
17 17 17 17 16 16 17 17 18 21 26 30 34 36 40 45 46 49 53 58 64 64
22 22 22 21 20 19 18 18 18 17 19 24 30 37 38 41 45 49 51 55 58 61
28 27 25 24 24 24 25 25 24 22 20 21 25 30 36 42 44 46 50 54 57 62
28 27 27 28 29 29 29 29 28 28 27 26 25 28 33 40 45 50 51 50 55 63

GFSNIL_prec_cthk_090.txt.gz
RH
94 96 97 98 98 98 98 96 92 93 98 95 94 94 94 94 94 95 93 90 91 90
96 95 93 93 93 99 99 97 95 96 96 94 92 93 94 91 92 95 95 93 93 90
85 87 89 92 94 93 94 93 94 96 98 97 95 94 95 94 94 95 96 95 95 95
68 68 70 76 81 82 85 86 87 85 87 87 87 87 89 89 89 89 90 88 93 92
55 53 49 49 49 53 57 61 67 72 75 76 75 73 73 81 81 83 82 83 86 88
47 46 45 44 43 42 43 42 41 42 44 47 49 52 51 53 57 58 65 71 78 86
38 37 36 34 35 35 37 40 43 44 44 42 43 44 44 46 47 47 51 53 59 67
26 25 26 28 29 29 31 33 35 36 37 36 36 37 38 40 41 44 48 50 56 60
18 18 17 17 17 19 20 22 24 28 31 34 36 37 39 42 44 45 47 50 56 54
16 16 16 16 16 16 16 16 16 17 19 24 30 34 36 40 42 45 48 53 57 62
19 19 19 19 19 18 18 17 16 15 15 15 16 21 29 35 38 40 43 48 54 60
24 24 24 23 24 23 22 20 19 18 17 17 16 16 18 27 34 37 38 43 48 54
25 26 26 26 26 27 28 27 27 27 26 26 24 23 21 23 25 30 37 43 43 48
27 28 29 29 31 33 33 33 33 32 33 32 32 31 31 30 35 32 31 40 47 49

GFSNIL_prec_cthk_093.txt.gz
RH
92 97 97 96 98 98 98 97 98 97 97 96 98 95 98 95 98 97 97 95 91 91
98 95 94 97 96 98 99 98 96 97 93 96 96 96 93 94 96 96 96 94 96 97
87 85 93 97 97 96 96 96 96 96 98 97 98 98 96 96 97 96 95 95 97 98
69 67 67 73 82 87 89 90 91 93 93 92 92 95 97 97 93 96 98 98 98 98
54 55 57 56 54 53 55 60 65 72 78 82 82 80 82 86 89 90 89 88 90 93
44 42 41 41 42 45 48 51 50 49 48 50 54 59 65 68 72 73 75 75 77 83
29 28 28 28 27 28 30 31 32 35 38 42 44 45 47 49 50 52 55 56 57 65
20 19 18 18 19 20 21 21 23 24 28 32 34 35 36 39 43 45 47 51 53 56
15 15 15 15 15 15 16 16 16 17 19 22 25 30 36 39 38 40 43 45 49 53
16 16 15 16 16 16 16 16 16 16 16 17 17 18 21 26 35 40 43 46 48 52
18 18 19 19 18 19 19 19 18 18 18 18 19 18 17 15 16 22 34 40 44 48
19 19 19 19 19 19 20 21 23 24 26 25 24 24 22 20 19 19 19 25 37 44
19 19 18 18 17 17 17 17 18 19 22 25 29 32 33 29 26 26 31 28 25 34
17 16 15 14 13 13 12 11 11 11 11 13 17 22 27 33 38 37 37 37 37 34

GFSNIL_prec_cthk_096.txt.gz
RH
88 91 90 93 96 94 97 95 99 98 98 99 99 99 98 96 95 96 97 95 94 97
94 95 93 96 96 96 96 97 97 98 98 98 97 95 94 92 93 96 98 99 98 98
81 84 88 91 93 97 96 97 95 95 96 99 97 97 98 98 98 99 96 96 98 97
70 71 67 63 65 70 78 84 87 89 91 94 96 96 94 96 97 98 97 98 97 97
58 57 56 56 57 58 61 60 60 60 64 71 78 84 87 87 87 94 96 97 96 98
35 33 33 32 33 33 34 35 37 41 43 46 49 53 60 66 69 69 76 82 85 87
22 21 19 18 18 18 18 18 19 20 22 25 29 32 34 37 40 44 49 54 59 62
16 15 14 14 14 13 13 13 13 14 15 15 16 17 20 26 32 35 37 42 46 51
17 16 16 16 16 16 16 15 15 15 14 14 14 14 14 14 16 18 26 36 42 45
18 18 18 19 19 19 19 18 18 18 18 18 18 17 17 16 15 15 14 17 26 35
20 19 19 18 17 17 16 15 15 15 15 16 17 18 18 18 19 19 19 18 19 18
19 18 16 14 13 12 10 9 9 9 10 10 10 10 11 13 16 20 22 24 24 23
16 14 12 12 11 10 10 10 10 10 10 10 9 9 10 10 11 12 14 21 27 33
13 13 14 14 13 13 12 11 10 9 9 9 9 9 10 11 13 16 16 16 18 26

GFSNIL_prec_cthk_099.txt.gz
RH
98 97 98 92 90 90 91 91 97 94 95 98 97 97 97 98 98 97 97 97 94 97
89 91 93 91 91 92 94 96 97 98 98 98 98 98 98 98 98 98 95 97 96 96
88 86 79 78 82 84 90 94 97 96 98 98 98 98 97 97 98 98 97 95 95 97
70 74 72 70 70 68 69 70 72 80 85 89 92 94 96 97 95 96 98 99 98 98
52 50 49 46 46 46 46 49 53 53 56 59 62 69 75 82 88 90 92 96 98 98
29 27 25 23 22 22 22 22 23 23 23 25 30 38 39 43 49 59 62 68 75 81
15 14 14 14 13 13 13 13 13 12 13 13 14 15 16 18 22 28 33 37 41 47
16 16 16 16 16 16 16 16 16 16 16 15 15 14 13 12 12 12 13 15 22 31
19 19 19 20 19 19 18 17 17 16 16 16 16 16 16 16 16 16 15 15 14 13
20 20 19 19 18 16 14 13 12 11 10 9 9 9 9 10 10 11 13 15 16 16
20 18 16 15 13 12 11 11 11 10 10 9 8 9 8 8 8 8 8 8 9 12
16 16 15 14 14 14 15 14 14 13 12 12 11 10 9 9 9 8 8 8 8 9
16 16 16 18 20 22 22 22 20 17 16 14 13 13 12 11 10 9 8 7 7 8
16 17 21 24 25 25 25 24 22 20 18 17 18 17 17 16 15 15 15 14 12 11

GFSNIL_prec_cthk_102.txt.gz
RH
95 97 99 97 98 91 90 92 91 91 96 99 93 95 95 98 97 97 98 98 98 98
93 88 89 89 86 92 91 92 94 97 98 99 99 99 97 98 99 99 97 99 98 96
87 91 86 82 79 75 74 83 88 91 94 94 97 98 99 99 98 98 98 98 98 98
67 72 70 68 64 64 66 65 65 71 74 79 83 90 92 94 96 97 97 98 98 98
49 46 45 47 41 40 39 44 41 43 47 50 56 58 62 65 69 76 87 93 94 95
22 19 18 17 16 15 15 14 14 15 16 18 18 18 19 22 31 35 42 49 56 68
17 17 17 17 17 17 16 16 16 16 15 15 15 15 15 15 14 14 14 16 21 29
18 17 17 17 17 16 16 15 14 13 13 13 13 13 13 14 14 14 15 16 16 15
19 19 19 18 16 14 13 13 12 12 11 11 11 11 10 10 9 9 9 11 12 14
20 19 16 15 14 14 14 13 13 13 13 13 14 14 13 12 11 11 10 9 8 8
18 17 16 16 16 16 16 16 17 19 20 20 19 18 18 17 16 15 13 12 12 13
18 18 17 16 16 16 18 19 20 21 21 23 23 24 22 21 20 18 17 18 17 16
31 30 28 28 29 30 31 32 32 33 30 28 26 24 23 22 21 24 25 25 24 23
28 28 29 32 36 38 38 37 36 34 32 30 29 26 25 25 25 27 28 27 26 27

GFSNIL_prec_cthk_105.txt.gz
RH
80 78 66 69 85 83 91 87 87 82 94 88 87 89 91 92 93 91 92 97 98 98
68 72 85 93 89 82 83 86 90 85 83 89 88 96 98 99 99 97 95 98 98 99
86 90 90 86 79 74 77 79 73 73 75 81 92 92 95 96 97 96 98 98 98 99
66 65 66 66 64 62 60 58 59 60 57 61 67 69 78 85 93 92 93 95 98 98
53 49 46 44 43 44 41 34 32 33 40 40 40 49 50 52 54 64 66 71 78 88
17 17 17 16 16 16 15 14 14 14 14 14 19 14 20 21 23 19 23 29 37 41
20 19 18 17 16 15 15 14 13 13 13 12 12 12 11 11 11 12 12 13 14 15
20 19 18 18 16 15 14 14 13 12 12 11 11 12 10 10 10 10 11 10 10 11
21 20 18 15 15 14 14 13 13 13 13 13 13 13 13 13 13 12 12 12 12 11
23 19 17 17 17 18 19 19 20 21 21 21 21 19 19 20 20 21 21 20 18 17
29 28 28 28 27 28 28 29 29 29 29 29 29 28 25 24 23 23 23 26 27 29
30 31 32 34 34 34 34 33 33 34 35 34 33 31 31 31 29 29 29 32 32 32
30 28 27 28 30 32 34 35 36 36 35 34 34 34 34 32 30 32 34 34 34 34
27 28 31 32 34 34 35 36 34 33 34 34 33 33 33 34 34 34 35 34 33 32

GFSNIL_prec_cthk_108.txt.gz
RH
82 85 88 85 80 75 70 64 64 66 69 78 81 82 93 93 82 83 88 83 92 92
68 67 64 68 69 77 88 87 85 86 85 80 78 74 87 93 89 97 94 94 97 93
85 83 85 84 86 86 79 73 71 72 71 68 67 65 68 77 87 93 97 97 96 98
62 61 58 61 63 63 63 63 58 53 50 47 48 50 51 52 61 66 76 90 94 90
19 23 32 24 19 19 17 17 16 14 13 11 11 19 25 32 28 37 41 52 55 62
21 21 20 19 17 16 15 14 13 13 13 13 12 13 12 12 13 16 18 22 22 22
22 21 19 18 17 15 14 14 15 14 14 14 14 14 12 12 11 11 10 10 12 10
25 23 21 19 17 17 17 16 16 16 16 15 15 16 16 15 15 14 13 12 12 12
34 33 31 29 29 29 29 29 28 28 26 24 21 20 20 19 19 19 19 19 19 19
34 30 29 29 29 29 30 31 31 32 33 33 34 34 35 34 32 31 29 26 23 20
31 25 23 23 24 25 27 29 29 29 30 31 31 32 33 38 36 35 34 34 35 37
27 25 23 26 30 32 33 33 34 35 36 35 32 31 31 34 32 30 27 28 31 31
24 23 27 30 32 32 33 34 32 31 32 32 32 31 31 34 36 35 33 31 30 28
26 29 34 35 35 35 32 31 30 30 29 29 30 31 33 35 36 38 40 40 34 32

GFSNIL_prec_cthk_111.txt.gz
RH
69 70 70 73 77 76 72 71 68 69 68 66 63 56 56 52 64 73 77 84 88 87
78 79 74 71 68 60 69 71 79 87 84 85 81 79 81 74 67 64 71 87 93 90
59 60 64 68 72 77 73 73 76 73 69 63 62 59 57 56 53 55 53 58 74 87
20 20 25 33 24 26 31 33 29 24 30 26 17 15 14 12 19 24 38 34 38 57
22 21 21 20 18 17 15 14 13 13 13 13 13 13 13 13 13 12 12 21 27 29
25 23 22 21 20 18 16 16 15 15 15 15 14 15 14 14 14 13 13 12 12 13
33 34 34 33 30 28 28 28 28 28 28 28 28 26 22 18 16 15 15 14 14 14
40 35 30 28 27 27 26 26 26 27 27 27 27 28 30 33 35 32 29 24 20 20
35 31 30 27 25 23 23 25 28 28 29 29 29 29 30 30 32 33 33 35 33 33
31 31 28 26 24 23 27 29 30 29 29 30 30 31 30 29 30 31 31 29 27 31
31 30 27 25 26 29 31 31 31 31 30 29 28 28 27 28 30 30 30 29 27 27
32 28 26 29 31 32 32 32 30 29 28 27 26 27 28 31 32 33 33 34 33 32
29 27 31 33 32 32 31 30 28 28 27 26 27 29 32 37 36 36 36 35 34 34
29 33 34 33 33 32 30 28 27 26 26 30 31 31 31 33 34 32 32 30 28 26

GFSNIL_prec_cthk_114.txt.gz
RH
75 73 73 71 63 64 66 66 66 68 70 70 67 67 63 60 60 57 53 50 52 57
39 45 58 67 73 78 76 72 71 72 75 76 74 71 69 68 68 65 70 69 63 59
19 19 21 26 25 21 27 31 36 39 36 38 39 40 43 36 28 26 31 25 26 28
22 22 21 21 19 18 16 14 13 13 13 12 13 13 13 13 14 14 13 13 13 14
28 28 28 29 29 27 25 24 23 22 21 21 20 19 19 18 17 16 15 14 14 14
39 37 34 32 29 26 24 25 25 25 26 26 27 28 28 29 30 30 29 27 24 20
38 35 33 30 27 26 26 24 24 24 25 27 27 27 27 28 28 27 27 28 28 30
36 34 30 27 27 28 25 24 26 28 28 28 27 27 28 29 30 32 31 30 29 28
35 31 27 29 28 26 26 28 30 28 27 26 26 25 24 23 23 24 25 25 25 24
34 30 31 30 27 28 31 31 29 28 27 24 22 22 22 22 24 24 24 24 25 25
33 32 32 29 29 31 31 30 29 28 24 23 22 21 21 23 25 25 27 28 29 29
31 32 30 30 32 33 32 32 31 28 24 23 21 23 24 27 27 29 29 28 25 23
30 32 33 35 35 35 33 32 31 27 24 22 24 24 25 26 29 28 28 28 28 26
32 35 36 36 38 38 34 34 29 26 23 25 25 25 28 29 31 33 36 37 35 34

GFSNIL_prec_cthk_117.txt.gz
RH
21 25 31 40 47 54 60 72 71 68 72 67 68 67 63 58 55 60 59 56 56 58
17 17 18 18 20 19 17 17 18 22 26 34 39 44 50 47 44 46 45 38 33 31
20 21 21 22 23 22 21 19 17 16 15 14 14 13 13 13 13 13 13 13 12 13
26 29 30 30 29 28 27 25 24 24 25 26 26 26 26 25 25 24 23 21 19 18
34 36 35 31 27 25 23 22 23 22 21 21 21 22 23 23 23 23 23 23 23 23
38 37 33 28 26 24 23 24 24 23 23 25 26 26 26 26 25 25 25 25 25 25
38 34 31 28 24 23 25 25 23 25 27 28 27 26 25 25 25 25 24 23 23 23
38 33 31 28 26 27 27 25 27 30 30 28 26 25 25 25 24 23 23 23 22 22
37 33 32 27 28 28 27 29 32 31 30 28 28 27 26 25 24 22 21 21 21 21
35 32 31 28 29 29 30 33 34 34 32 28 26 26 25 24 22 21 20 21 21 21
35 33 31 28 29 31 34 37 38 36 32 28 28 26 24 24 22 22 23 24 25 26
35 33 29 27 32 35 38 40 40 35 32 30 28 26 25 23 23 23 26 27 27 28
34 32 27 29 38 41 42 41 38 35 34 31 29 27 25 23 23 27 27 29 33 35
35 30 27 38 42 45 44 41 39 39 35 32 31 27 26 26 31 32 35 40 42 40